Tracking 18852 objects as of 24-Nov-2017
HD Live streaming from Space Station
objects crossing your sky now

INTELSAT 3-F2

Track INTELSAT 3-F2 now!
INTELSAT 3-F2 is classified as:


NORAD ID: 3623
Int'l Code: 1968-116A
Perigee: 38,426.9 km
Apogee: 39,330.9 km
Inclination: 11.7 °
Period: 1,596.6 minutes
Semi major axis: 45249 km
RCS: 2.5118 m2 (large)
Launch date: December 19, 1968
Source: International Telecommunications Satellite Organization (ITSO)
Launch site: AIR FORCE EASTERN TEST RANGE (AFETR)
aabbcc
Your satellite tracking list
Your tracking list is empty




NASA's NSSDC Master Catalog

Two Line Element Set (TLE):
1 03623U 68116A   17327.03199226 -.00000100  00000-0  00000+0 0  9999
2 03623  11.6691 316.3282 0099887  14.5064 152.2997  0.90193810 97839
Source of the keplerian elements: AFSPC